When you browse on this site, cookies collect data to enhance your experience and personalize the content and advertising you see.
Visit our Privacy Policy to learn more. By continuing to use the site, you agree to this use of cookies and data.
  • en France
  • Liste des pays
  • À 7 jours
  • Température de l'eau
  • Carte satellitaire
  • Carte météo
  • Widgets météo
  • user-avatar
    Se connecter

    Météo par heure à Kandahâr

    Ce jour, 16 Février, Samedi

    Heure Température Précipitation Vent Pression Humidité
    00:00 +7°C° 0 mm 0 m/s 677 mmHg 47%
    01:00 +7°C° 0 mm 0 m/s 677 mmHg 47%
    02:00 +7°C° 0 mm 1 m/s 677 mmHg 48%
    03:00 +7°C° 0 mm 1 m/s 677 mmHg 48%
    04:00 +7°C° 0 mm 1 m/s 677 mmHg 48%
    05:00 +7°C° 0 mm 1 m/s 677 mmHg 48%
    06:00 +7°C° 0 mm 1 m/s 677 mmHg 49%
    07:00 +7°C° 0 mm 1 m/s 677 mmHg 49%
    08:00 +7°C° 0 mm 2 m/s 677 mmHg 43%
    09:00 +9°C° 0 mm 2 m/s 677 mmHg 37%
    10:00 +12°C° 0 mm 2 m/s 677 mmHg 31%
    11:00 +13°C° 0 mm 2 m/s 677 mmHg 28%
    12:00 +14°C° 0 mm 2 m/s 677 mmHg 24%
    13:00 +15°C° 0 mm 2 m/s 676 mmHg 21%
    14:00 +15°C° 0 mm 2 m/s 676 mmHg 21%
    15:00 +16°C° 0 mm 2 m/s 675 mmHg 21%
    16:00 +16°C° 0 mm 3 m/s 675 mmHg 20%
    17:00 +14°C° 0 mm 3 m/s 675 mmHg 23%
    18:00 +14°C° 0 mm 3 m/s 675 mmHg 25%
    19:00 +13°C° 0 mm 3 m/s 675 mmHg 27%
    20:00 +13°C° 0.1 mm 3 m/s 675 mmHg 30%
    21:00 +13°C° 0.1 mm 3 m/s 675 mmHg 33%
    22:00 +12°C° 0.1 mm 3 m/s 675 mmHg 36%
    23:00 +12°C° 0 mm 4 m/s 674 mmHg 37%

    Demain, 17 Février, Dimanche

    Heure Température Précipitation Vent Pression Humidité
    00:00 +12°C° 0 mm 4 m/s 674 mmHg 39%
    01:00 +10°C° 0 mm 5 m/s 674 mmHg 40%
    02:00 +10°C° 0 mm 5 m/s 673 mmHg 43%
    03:00 +10°C° 0 mm 4 m/s 672 mmHg 45%
    04:00 +10°C° 0 mm 4 m/s 672 mmHg 47%
    05:00 +10°C° 0 mm 4 m/s 672 mmHg 49%
    06:00 +10°C° 0 mm 3 m/s 672 mmHg 50%
    07:00 +10°C° 0 mm 3 m/s 672 mmHg 52%
    08:00 +11°C° 0 mm 3 m/s 673 mmHg 50%
    09:00 +12°C° 0 mm 3 m/s 673 mmHg 49%
    10:00 +13°C° 0 mm 3 m/s 674 mmHg 48%
    11:00 +13°C° 0.9 mm 3 m/s 673 mmHg 57%
    12:00 +12°C° 0.9 mm 3 m/s 672 mmHg 65%
    13:00 +12°C° 0.9 mm 3 m/s 672 mmHg 74%
    14:00 +12°C° 0.4 mm 3 m/s 672 mmHg 76%
    15:00 +13°C° 0.4 mm 2 m/s 672 mmHg 77%
    16:00 +13°C° 0.4 mm 2 m/s 671 mmHg 78%
    17:00 +12°C° 0 mm 2 m/s 671 mmHg 80%
    18:00 +12°C° 0 mm 2 m/s 671 mmHg 81%
    19:00 +12°C° 0 mm 2 m/s 671 mmHg 82%
    20:00 +10°C° 0 mm 2 m/s 671 mmHg 82%
    21:00 +10°C° 0 mm 2 m/s 671 mmHg 83%
    22:00 +10°C° 0 mm 2 m/s 671 mmHg 83%
    23:00 +9°C° 0 mm 2 m/s 670 mmHg 82%

    Après-demain, 18 Février, Lundi

    Heure Température Précipitation Vent Pression Humidité
    00:00 +9°C° 0 mm 2 m/s 670 mmHg 81%
    01:00 +9°C° 0 mm 2 m/s 670 mmHg 81%
    02:00 +9°C° 0 mm 2 m/s 670 mmHg 80%
    03:00 +10°C° 0 mm 1 m/s 669 mmHg 79%
    04:00 +9°C° 0 mm 0 m/s 669 mmHg 78%
    05:00 +9°C° 0 mm 0 m/s 669 mmHg 78%
    06:00 +9°C° 0 mm 0 m/s 670 mmHg 77%
    07:00 +9°C° 0 mm 0 m/s 670 mmHg 76%
    08:00 +10°C° 0 mm 0 m/s 671 mmHg 71%
    09:00 +12°C° 0 mm 1 m/s 671 mmHg 66%
    10:00 +12°C° 0 mm 1 m/s 672 mmHg 61%
    11:00 +14°C° 0 mm 1 m/s 672 mmHg 53%
    12:00 +15°C° 0 mm 2 m/s 672 mmHg 44%
    13:00 +16°C° 0 mm 3 m/s 671 mmHg 35%
    14:00 +15°C° 0 mm 4 m/s 671 mmHg 33%
    15:00 +15°C° 0 mm 4 m/s 671 mmHg 30%
    16:00 +16°C° 0 mm 5 m/s 671 mmHg 28%
    17:00 +15°C° 0 mm 4 m/s 671 mmHg 30%
    18:00 +14°C° 0 mm 4 m/s 671 mmHg 31%
    19:00 +13°C° 0 mm 3 m/s 671 mmHg 33%
    20:00 +12°C° 0 mm 3 m/s 671 mmHg 34%
    21:00 +12°C° 0 mm 2 m/s 671 mmHg 34%
    22:00 +12°C° 0 mm 2 m/s 671 mmHg 34%
    23:00 +11°C° 0 mm 1 m/s 670 mmHg 36%

    19 Février, Mardi

    Heure Température Précipitation Vent Pression Humidité
    00:00 +10°C° 0 mm 1 m/s 670 mmHg 37%
    01:00 +9°C° 0 mm 0 m/s 670 mmHg 39%
    02:00 +9°C° 0 mm 0 m/s 669 mmHg 39%
    03:00 +9°C° 0 mm 1 m/s 669 mmHg 39%
    04:00 +9°C° 0 mm 1 m/s 669 mmHg 39%
    05:00 +8°C° 0 mm 2 m/s 669 mmHg 39%
    06:00 +9°C° 0 mm 2 m/s 670 mmHg 38%
    07:00 +9°C° 0 mm 3 m/s 670 mmHg 38%
    08:00 +10°C° 0 mm 3 m/s 671 mmHg 35%
    09:00 +12°C° 0 mm 4 m/s 671 mmHg 32%
    10:00 +14°C° 0 mm 4 m/s 671 mmHg 30%
    11:00 +15°C° 0 mm 4 m/s 671 mmHg 29%
    12:00 +17°C° 0 mm 4 m/s 671 mmHg 29%
    13:00 +18°C° 0 mm 4 m/s 670 mmHg 28%
    14:00 +19°C° 0 mm 4 m/s 670 mmHg 27%
    15:00 +19°C° 0 mm 5 m/s 670 mmHg 25%
    16:00 +20°C° 0 mm 6 m/s 670 mmHg 24%
    17:00 +17°C° 0 mm 5 m/s 670 mmHg 26%
    18:00 +17°C° 0 mm 4 m/s 670 mmHg 29%
    19:00 +14°C° 0 mm 3 m/s 670 mmHg 32%
    20:00 +13°C° 0 mm 3 m/s 671 mmHg 36%
    21:00 +13°C° 0 mm 2 m/s 671 mmHg 40%
    22:00 +12°C° 0 mm 2 m/s 671 mmHg 45%
    23:00 +12°C° 0 mm 2 m/s 671 mmHg 46%

    20 Février, Mercredi

    Heure Température Précipitation Vent Pression Humidité
    00:00 +11°C° 0 mm 3 m/s 671 mmHg 47%
    01:00 +11°C° 0 mm 3 m/s 671 mmHg 48%
    02:00 +11°C° 0 mm 3 m/s 671 mmHg 49%
    03:00 +11°C° 0 mm 3 m/s 671 mmHg 49%
    04:00 +11°C° 0 mm 4 m/s 671 mmHg 50%
    05:00 +11°C° 0 mm 4 m/s 671 mmHg 51%
    06:00 +11°C° 0 mm 4 m/s 671 mmHg 52%
    07:00 +11°C° 0 mm 3 m/s 672 mmHg 53%
    08:00 +11°C° 0.1 mm 4 m/s 672 mmHg 53%
    09:00 +12°C° 0.1 mm 4 m/s 673 mmHg 54%
    10:00 +13°C° 0.1 mm 4 m/s 673 mmHg 54%
    11:00 +13°C° 0.2 mm 4 m/s 672 mmHg 57%
    12:00 +13°C° 0.2 mm 4 m/s 672 mmHg 61%
    13:00 +12°C° 0.2 mm 4 m/s 671 mmHg 65%
    14:00 +12°C° 0.7 mm 3 m/s 671 mmHg 63%
    15:00 +13°C° 0.7 mm 3 m/s 671 mmHg 62%
    16:00 +13°C° 0.7 mm 3 m/s 671 mmHg 61%
    17:00 +12°C° 0.4 mm 3 m/s 671 mmHg 65%
    18:00 +11°C° 0.4 mm 3 m/s 671 mmHg 69%
    19:00 +10°C° 0.4 mm 3 m/s 672 mmHg 73%
    20:00 +10°C° 0.1 mm 3 m/s 672 mmHg 75%
    21:00 +9°C° 0.1 mm 3 m/s 672 mmHg 77%
    22:00 +9°C° 0.1 mm 3 m/s 672 mmHg 79%
    23:00 +8°C° 0.1 mm 3 m/s 672 mmHg 78%

    21 Février, Jeudi

    Heure Température Précipitation Vent Pression Humidité
    00:00 +8°C° 0.1 mm 3 m/s 672 mmHg 77%
    01:00 +8°C° 0.1 mm 3 m/s 672 mmHg 77%
    02:00 +8°C° 0 mm 3 m/s 672 mmHg 74%
    03:00 +7°C° 0 mm 3 m/s 672 mmHg 72%
    04:00 +7°C° 0 mm 3 m/s 673 mmHg 70%
    05:00 +5°C° 0 mm 3 m/s 673 mmHg 68%
    06:00 +5°C° 0 mm 3 m/s 674 mmHg 67%
    07:00 +5°C° 0 mm 3 m/s 674 mmHg 65%
    08:00 +5°C° 0 mm 4 m/s 675 mmHg 58%
    09:00 +6°C° 0 mm 4 m/s 675 mmHg 52%
    10:00 +7°C° 0 mm 4 m/s 676 mmHg 45%
    11:00 +7°C° 0 mm 5 m/s 676 mmHg 41%
    12:00 +8°C° 0 mm 5 m/s 676 mmHg 38%
    13:00 +9°C° 0 mm 5 m/s 675 mmHg 34%
    14:00 +9°C° 0 mm 5 m/s 675 mmHg 34%
    15:00 +9°C° 0 mm 5 m/s 675 mmHg 33%
    16:00 +9°C° 0 mm 5 m/s 675 mmHg 33%
    17:00 +8°C° 0 mm 4 m/s 676 mmHg 36%
    18:00 +8°C° 0 mm 4 m/s 676 mmHg 39%
    19:00 +8°C° 0 mm 3 m/s 676 mmHg 42%
    20:00 +8°C° 0 mm 3 m/s 676 mmHg 43%
    21:00 +7°C° 0 mm 3 m/s 676 mmHg 44%
    22:00 +5°C° 0 mm 3 m/s 677 mmHg 45%
    23:00 +6°C° 0 mm 2 m/s 677 mmHg 46%
    Voir plus